Simultaneous Nadir Overpasses (SNOs) Predictions

Prediction of SNOs between GOES-17 and METOP-B Satellite Orbit:

Table of predicted SNOs for the next 14.0 days since TLE Epoch: 12/9/2022
Index Date Time (GOES-17) GOES-17 Lat,Lon METOP-B Lat,Lon Distance(km) Time Diff (sec)
1 12/11/2022 06:57:57 -0.01,-137.32 -0.93,-141.44 470.58 80
2 12/12/2022 06:34:37 -0.02,-137.31 0.14,-136.44 98.09 80
3 12/13/2022 18:53:31 0.03,-137.31 0.84,-141.02 421.81 80
4 12/14/2022 18:35:31 0.04,-137.30 -0.24,-136.01 146.59 80
5 12/16/2022 06:54:33 -0.04,-137.28 -0.76,-140.62 379.47 80
6 12/17/2022 06:31:13 -0.04,-137.27 0.32,-135.62 188.48 80
7 12/18/2022 18:50:05 0.04,-137.26 0.71,-140.18 332.58 80
8 12/19/2022 18:32:07 0.04,-137.25 -0.44,-135.19 234.92 80
9 12/21/2022 06:48:27 -0.04,-137.21 -0.62,-139.78 292.73 80
10 12/22/2022 06:30:28 -0.04,-137.19 0.47,-134.78 274.02 80
11 12/23/2022 18:46:40 0.04,-137.16 0.55,-139.34 249.08 80
